FENGYUN 1C DEB, 31223

Orbit data source: Space-Track

FENGYUN 1C DEB, 31223 is space debris in SSO originally from a launch on Mon, 10 May 1999 UTC launched from the Taiyaun Space Center, China (TSC). Fengyun 1C debris stems from the Chinese weather satellite Fengyun-1C, which was intentionally destroyed by a Chinese anti-satellite missile in 2007. This event dramatically increased the amount of space debris, with thousands of trackable fragments posing hazards to satellites and human spaceflight. The Fengyun 1C debris cloud has become a focal point in discussions about space sustainability and the need for international regulations to prevent the creation of new debris.

Loading next visibility...
Identifier
31223, 1999-025BLD
Orbit
SSO
Country
Flag of CNCN / PRC
Related business
Manufacturer
Unknown
Mission
Spacecraft
Bus & Motor
Unknown
Mass
Unknown
Launch date (UTC)
1999-05-10 (27 years ago)
Launch vehicle
Unknown
Launch site
Taiyaun Space Center, China (TSC)
Object type
Payload
Rocket body
Debris
Shape & HBR
Unknown shape, 0.1 m
Radar Cross Section
Small (<0.1 m²)

Expand to show TLE details & history
Last TLE update: 10 hours ago

TLE from 10 hours ago
0 FENGYUN 1C DEB
1 31223U 99025BLD 26123.96614264  .00004216  00000-0  33998-2 0  9995
2 31223  99.0248   8.2673 0236543  22.6113 338.5258 13.78717255946873
Epoch: 2026-05-03T23:11Z
TLE epoch observation values (Epoch: 2026-05-03T23:11:14.724Z)
Latitude
-0.00002°
Longitude
158.59384°
Altitude
810.112 km
Speed
7.529 km/s
True Right ascension
00h 33m 04s
True Declination
0° 00' 00"
Sunlit
Object was in daylight at epoch
Visualization orbit readout
Latitude
Unknown
Longitude
Unknown
Altitude
Unknown
Speed
Unknown
Apparent Right ascension
Unknown
Apparent Declination
Unknown
Sunlit
N/A
Visualization observer readout
Local Sidereal Time
16:37:01
Azimuth
Unknown
Elevation
Unknown
Doppler factor
Unknown
Orbital elements
Apogee altitude
1,139.379 km
Perigee altitude
791.954 km
Semi-major axis
7,343.804 km
Eccentricity
0.02365
Inclination
99.0248°
RAAN
8.2673°
Arg. of periapsis
22.6113°
True anomaly
337.50551°
Mean anomaly
338.5258°
Eccentric anomaly
338.0185°
Mean motion
3.44875 °/min
Orbital period
104.39 mins
BSTAR
0.0033998
Loading maneuver chart data...
Computing Atmospheric mass density...
Loading historical data...
Loading historical data...
Loading historical data...
Loading historical data...
Loading historical data...
Loading historical data...
Loading historical data...

Documentation

Showing up to 5 results
|